Other Public Products
Issued by NWS Grand Forks, ND

Home | Current Version | Previous Version | Text Only | Print | Product List | Glossary On
Versions: 1 2 3 4 5 6 7 8 9 10 11 12 13 14 15 16 17 18 19 20 21 22 23 24 25 26 27 28 29 30 31 32 33 34 35 36 37 38 39 40 41 42 43 44 45 46 47 48 49 50
000
FPUS83 KFGF 162231
OPUFGF
PRAIRIE TO PINES WEATHER ROUNDUP
NATIONAL WEATHER SERVICE EASTERN NORTH DAKOTA/GRAND FORKS ND
500 PM CDT MON MAY 16 2022

 **SATELLITE DATA USED TO AUGMENT SKY COVER AT AUTOMATED STATIONS**
 *****  WEATHER ACROSS EASTERN NORTH DAKOTA  *****

CITY           SKY/WX    TMP DP  RH WIND       PRES   REMARKS
GRAND FORKS    PTSUNNY   62  42  47 NE8       29.98F
GRND FORKS AFB PTSUNNY   62  42  48 N8        29.98F
GRND FORKS NWS   N/A     61  45  56 NE9       29.94S
BUXTON         NOT AVBL
DEVILS LAKE    FAIR      62  39  42 E6        29.98F
FARGO          FAIR      63  38  39 N8        29.98S
WAHPETON ARPT  FAIR      68  37  32 N15       29.96S
$$

 *****  WEATHER ACROSS CENTRAL AND WESTERN NORTH DAKOTA  *****

CITY           SKY/WX    TMP DP  RH WIND       PRES   REMARKS
JAMESTOWN      FAIR      68  40  35 E5        29.94F
BISMARCK       FAIR      73  38  27 E6        29.89F
MINOT          PTSUNNY   66  42  41 E13       29.91F
MINOT AFB      CLOUDY    65  43  44 SE14      29.89F
GARRISON         N/A     71  37  28 E10       29.90F
WILLISTON      NOT AVBL
DICKINSON      FAIR      76  42  29 SE12      29.84F
HETTINGER      PTSUNNY   74  43  32 SE14      29.86F
$$

 *****  OTHER OBSERVATIONS NORTHEAST NORTH DAKOTA  *****

CITY           SKY/WX    TMP DP  RH WIND       PRES   REMARKS
WALHALLA       FAIR      59  41  51 VRB7      29.99F
LANGDON        FAIR      63  41  45 N8        29.99S
CAVALIER       FAIR      59  39  47 N9G15     29.99F
GRAFTON        FAIR      59  41  51 NE10      29.99S
CANDO          FAIR      61  55  82 E7G14     29.99F
FORT TOTTEN      N/A     65  39  39 E7        29.95S
ROLLA          FAIR      63  63 100 E8        29.97F
RUGBY          FAIR      63  43  48 E14       29.94S
 ***** THE ABOVE OBSERVATIONS ARE NON NWS ARE NOT QUALITY
        CONTROLLED AND MAY MIS-REPORT RAIN FOR SNOW...
$$

 *****  OTHER OBSERVATIONS SOUTHEAST NORTH DAKOTA *****

CITY           SKY/WX    TMP DP  RH WIND       PRES   REMARKS
COOPERSTOWN    FAIR      64  41  42 E7        29.97F
VALLEY CITY    FAIR      66  43  42 NE7       29.96F
OAKES          FAIR      68  37  32 CALM      29.95F
GWINNER        CLEAR     68  43  40 E12       29.95F
BUFFALO        NOT AVBL
WYNDMERE       NOT AVBL
 ***** THE ABOVE OBSERVATIONS ARE NON NWS ARE NOT QUALITY
       CONTROLLED AND MAY MIS-REPORT RAIN FOR SNOW...
$$

  *****  WEATHER ACROSS NORTHERN MINNESOTA  *****

CITY           SKY/WX    TMP DP  RH WIND       PRES   REMARKS
FLAG ISLAND    FAIR      54  34  47 CALM      29.97F
WARROAD        FAIR      50  41  71 E7        29.99S
ROSEAU           N/A     57  43  58 CALM      29.97F
HALLOCK        FAIR      61  43  51 NW10      29.99S
THF RVR FALLS  FAIR      58  42  55 NW13      29.99F
HALSTAD        NOT AVBL
FOSSTON          N/A     57  39  51 N13       29.99S
BAUDETTE       FAIR      56  38  50 N10       29.99F
WASKISH        FAIR      57  41  54 NW6       29.97S
CROOKSTON      FAIR      57 N/A N/A N14       29.99F
$$
  *****  WEATHER ACROSS CENTRAL AND WEST MINNESOTA  *****

CITY           SKY/WX    TMP DP  RH WIND       PRES   REMARKS
BEMIDJI        CLOUDY    57  39  50 NW10G17   29.97S
PARK RAPIDS    FAIR      64  37  36 NW17G25   29.95S
WADENA         NOT AVBL
DETROIT LAKES  FAIR      59  39  47 NW9G17    29.98S
MOORHEAD       FAIR      63  39  42 NE9       29.99S
FERGUS FALLS   FAIR      64  39  39 N13G21    29.95S
ELBOW LAKE     FAIR      65  40  40 N13       29.97F
MORRIS MN      NOT AVBL
STAPLES          N/A     64  36  34 NW15      29.95S
WHEATON        NOT AVBL
$$
  *****  WEATHER ELSEWHERE ACROSS MINNESOTA  *****

CITY           SKY/WX    TMP DP  RH WIND       PRES   REMARKS
DULUTH         PTSUNNY   61  38  42 NW17G26   29.90S
INTRNTL FALLS  CLOUDY    54  37  52 NW12      29.96S
ELY            CLOUDY    52  34  50 NW10G17   29.94R
CLOQUET          N/A     61  34  36 NW12      29.91R
BRAINERD       FAIR      68  35  29 N13G20    29.93F
HIBBING        CLOUDY    55  38  52 NW17      29.94R
ALEXANDRIA     FAIR      65  35  33 N15G22    29.97F
SAINT CLOUD    FAIR      67  35  30 NW16G24   29.92F
MINNEAPOLIS    FAIR      69  35  28 NW16G29   29.91F
$$

  *****  WEATHER ACROSS SOUTH DAKOTA  *****

CITY           SKY/WX    TMP DP  RH WIND       PRES   REMARKS
SIOUX FALLS    FAIR      81  42  25 VRB7      29.91F
BROOKINGS      FAIR      78  39  24 SE3       29.94F
WATERTOWN      FAIR      71  37  28 CALM      29.94F
HURON          FAIR      78  42  27 NE5       29.90F
SISSETON         N/A     72  41  32 N12       29.95F
ABERDEEN       FAIR      77  38  24 CALM      29.91F
MITCHELL       FAIR      79  44  28 VRB3      29.89F
PIERRE         FAIR      78  46  32 E13       29.83F
MOBRIDGE       FAIR      77  36  22 SE6       29.85F
RAPID CITY     FAIR      78  48  34 E9        29.83F
$$

  *****  SOME WEATHER IN NEARBY STATES *****

CITY           SKY/WX    TMP DP  RH WIND       PRES   REMARKS
GLASGOW MT     FAIR      75  44  33 S9G20     29.82F
GREAT FALLS MT FAIR      71  35  26 W15G28    29.85F
CHEYENNE WY    LGT RAIN  75  34  22 SE24G35   30.00R
SCOTTSBLUFF NE FAIR      88  42  20 MISG      29.82F
OMAHA NE       FAIR      85  47  26 NW7       29.91F
DES MOINES IA  FAIR      81  43  26 W14G20    29.91F
DAVENPORT IA   FAIR      82  34  17 NW20G32   29.88F
CHICAGO IL     FAIR      77  37  23 W20G29    29.82S
EAU CLAIRE WI  PTSUNNY   71  38  29 NW15G23   29.88R
LA CROSSE WI   FAIR      76  37  24 NW18G25   29.85S
$$

  *****  SOME NATIONAL WEATHER *****

CITY           SKY/WX    TMP DP  RH WIND       PRES   REMARKS
LA GUARDIA NY  TSTM      67  61  81 S9        29.56R
RALEIGH NC     PTSUNNY   70  65  84 VRB3      29.74R THUNDER
ATLANTA GA     PTSUNNY   84  56  38 NW17      29.86S
NEW ORLEANS LA FAIR      91  63  39 CALM      29.90F HX  92
OKLAHOMA CITY  FAIR      83  61  47 E10       29.96F
ALBUQUERQUE NM PTSUNNY   89  24   9 S15G22    29.96F
SALT LAKE CITY PTSUNNY   86  32  14 NW13      29.84F
LOS ANGELES CA FAIR      67  55  65 SW12      29.93F
BOISE ID       FAIR      74  44  34 N16G29    29.91S
SEATTLE WA     PTSUNNY   58  42  55 SW12G23   30.17R
$$

*** WEATHER ACROSS MANITOBA...SASKATCHEWAN AND ONTARIO ***
                ***ONTARIO***

CITY           SKY/WX    TMP DP  RH WIND       PRES   REMARKS
GERALDTON      NOT AVBL
THUNDER BAY    PTSUNNY   57  39  51 NW13G18   29.85S
SIOUX LOOKOUT  PTSUNNY   48  36  61 NW12G17   29.96R
TORONTO        PTSUNNY   64  48  55 N15G22    29.68R
BIG TROUT LK   CLOUDY    39  34  81 N7        29.96R
PICKLE LAKE    CLOUDY   N/A N/A N/A NW6       29.93R
DRYDEN         CLOUDY    50  34  53 N8        29.96S
KENORA         PTSUNNY   54  36  50 NW10      29.98S
$$
                *** MANITOBA***

CITY           SKY/WX    TMP DP  RH WIND       PRES   REMARKS
BRANDON        PTSUNNY   59  41  51 E12G23    29.97F
DAUPHIN        PTSUNNY   52  39  62 E12       30.03F
ISLAND LAKE    SUNNY     48  23  37 N8        30.03R
PILOT MOUND      N/A     59  39  47 NE6         N/A
THE PAS        PTSUNNY   52  28  40 NW9       30.06F
THOMPSON       MOSUNNY   52  23  32 E6        30.07S
WINNIPEG       MOSUNNY   55  39  54 NE12      30.01S
LYNN LAKE      SUNNY     52  21  30 N6        30.10F
CHURCHILL      MOSUNNY   37  30  75 N14G20    30.13S
GILLAM         MOSUNNY   48  30  49 N9        30.06S
$$
                ***SASKATCHEWAN***

CITY           SKY/WX    TMP DP  RH WIND       PRES   REMARKS
ESTEVAN        PTSUNNY   70  45  40 SW17G23   29.86F
KINDERSLEY     PTSUNNY   73  36  25 E18G25    29.76F
LLOYDMINSTER   CLOUDY    61  34  36 SE17      29.86F
PRINCE ALBERT  MOSUNNY   59  34  38 E16G26    29.98S
REGINA         PTSUNNY   70  39  32 SE18G28   29.83F
YORKTON        CLOUDY    54  36  50 NE6       29.97S
N. BATTLEFORD  CLOUDY    61  34  36 E21G28    29.91S


USA.gov is the U.S. government's official web portal to all federal, state and local government web resources and services.